User: anonymous   Login
Location: Unspecified
(0.0000°N, 0.0000°E)
Time: 00:55:30
(UTC+00:00)
Language:

Spot 3 - Orbit

View from above orbital plane
View from above orbital plane
View from above satellite
View from above satellite

Ground track
Ground track

The orbit data is extracted from the following two-line orbital elements,

1 22823U 93061A   19022.51198981  .00000011  00000-0  27286-4 0  9993
2 22823  99.0258   4.0959 0017487  36.1075 324.1277 14.19215916311402
Epoch (UTC): 22 January 2019 12:17:15
Eccentricity: 0.0017487
inclination: 99.0258°
perigee height: 815 km
apogee height: 840 km
right ascension of ascending node: 4.0959°
argument of perigee: 36.1075°
revolutions per day: 14.19215916
mean anomaly at epoch: 324.1277°
orbit number at epoch: 31140

The dashed part of the orbit path shows where the satellite is in the earth's shadow,  

DLR